SIRIUSSAT-1 (43595 NORAD) Tracking and Keplerian Element Data

This shows tracking and keplerian element data for the satellite.

Feedback or suggestion? Click here.




ElementValue
Catalog43595
NameSIRIUSSAT-1
Epoch Orbit1398
Epoch Day317.58453573
Epoch Year2018
RAAN353.3335
Inclination51.6398
Eccentricity0.0004323
Argument of Perigee18.6974
Mean Anonmoly341.4176
Mean Motion15.56114783
Decay Rate9.622E-05
L11 43595U 98067PG 18317.58453573 .00009622 00000-0 14183-3 0 9995
L22 43595 51.6398 353.3335 0004323 18.6974 341.4176 15.56114783 13980

Live tracking and technical data element details for SIRIUSSAT-1 (NORAD 43595). SIRIUSSAT-1 can be tracked NOW for your location showing map with azimuth and elevation plus other details from your city location.

Track the satellite on the map from your city or location and see movement details for azimuth, elevation, latitude, longitude, range, height, and movement on the map or in text.







IsCatalogInMostPopularTable: catalog: 43595, numindb: 33
Update: records affected: 1



GetName: 43595 SIRIUSSAT-1

Hit Count: updated at: Thu, 15 Nov 2018 04:48:39 GMT